,,,PA_Meas_PMT16A,,PR_Meas_QMR101_102,,RH_Meas_QMH101,,SR_Meas_QMS101,,TA_Meas_QMH101,,GenWind,,GenWind,
date,time,status,PA,status,PR,status,RH,status,SR,status,TA,status,DirAvg,status,SpdAvg,
2012-06-27, 07:09:04,VALID,1005.81,VALID,0,VALID,93.9954,VALID,110.2,VALID,24.4628,VALID,10,VALID,0.932422,
2012-06-27, 07:10:04,VALID,1005.84,VALID,0,VALID,93.9802,VALID,112.971,VALID,24.5017,VALID,8,VALID,0.548828,
2012-06-27, 07:11:04,VALID,1005.84,VALID,0.5,VALID,94.0107,VALID,115.824,VALID,24.5388,VALID,7,VALID,0.590234,
2012-06-27, 07:12:04,VALID,1005.86,VALID,0,VALID,93.8505,VALID,118.922,VALID,24.5388,VALID,358,VALID,0.649219,
2012-06-27, 07:13:04,VALID,1005.85,VALID,0,VALID,93.8276,VALID,122.182,VALID,24.5601,VALID,354,VALID,0.533594,
2012-06-27, 07:14:04,VALID,1005.87,VALID,0,VALID,93.8123,VALID,126.909,VALID,24.5777,VALID,352,VALID,0.474609,
2012-06-27, 07:15:04,VALID,1005.86,VALID,0,VALID,93.9725,VALID,134.408,VALID,24.6574,VALID,352,VALID,0,
2012-06-27, 07:16:04,VALID,1005.89,VALID,0,VALID,94.087,VALID,141.418,VALID,24.7548,VALID,352,VALID,0.0238281,
2012-06-27, 07:17:04,VALID,1005.93,VALID,0,VALID,93.8581,VALID,143.211,VALID,24.7956,VALID,352,VALID,0.172656,
2012-06-27, 07:18:04,VALID,1005.93,VALID,0,VALID,93.5835,VALID,138.484,VALID,24.7353,VALID,349,VALID,0.594922,
2012-06-27, 07:19:04,VALID,1005.96,VALID,0,VALID,93.1715,VALID,128.54,VALID,24.7159,VALID,354,VALID,1.08828,
2012-06-27, 07:20:04,VALID,1005.96,VALID,0,VALID,92.7824,VALID,125.524,VALID,24.6361,VALID,351,VALID,0.888672,
2012-06-27, 07:21:04,VALID,1005.97,VALID,0,VALID,93.1639,VALID,124.709,VALID,24.7159,VALID,325,VALID,0.429297,
2012-06-27, 07:22:04,VALID,1005.95,VALID,0,VALID,92.9884,VALID,125.442,VALID,24.7159,VALID,353,VALID,0.610156,
2012-06-27, 07:23:04,VALID,1005.93,VALID,0,VALID,93.2173,VALID,127.072,VALID,24.7761,VALID,359,VALID,0,
2012-06-27, 07:24:04,VALID,1005.94,VALID,0,VALID,93.4385,VALID,129.436,VALID,24.8132,VALID,359,VALID,0,
2012-06-27, 07:25:04,VALID,1005.96,VALID,0,VALID,93.3394,VALID,132.044,VALID,24.8716,VALID,359,VALID,0.172656,
2012-06-27, 07:26:04,VALID,1005.97,VALID,0,VALID,92.8282,VALID,134.164,VALID,24.8716,VALID,356,VALID,0.520312,
2012-06-27, 07:27:04,VALID,1005.96,VALID,0,VALID,92.5383,VALID,134.979,VALID,24.8327,VALID,319,VALID,0.353516,
2012-06-27, 07:28:04,VALID,1005.97,VALID,0,VALID,92.6299,VALID,135.223,VALID,24.8522,VALID,319,VALID,0.256641,
2012-06-27, 07:29:04,VALID,1006,VALID,0,VALID,92.5231,VALID,137.261,VALID,24.8716,VALID,305,VALID,0.532031,
2012-06-27, 07:30:04,VALID,1005.98,VALID,0,VALID,92.3705,VALID,142.641,VALID,24.8911,VALID,304,VALID,0.721875,
2012-06-27, 07:31:04,VALID,1005.96,VALID,0,VALID,92.1035,VALID,153.318,VALID,24.8716,VALID,302,VALID,0.655078,
2012-06-27, 07:32:04,VALID,1005.96,VALID,0,VALID,92.4773,VALID,170.028,VALID,24.93,VALID,302,VALID,0.0710938,
2012-06-27, 07:33:04,VALID,1005.93,VALID,0,VALID,92.4163,VALID,171.413,VALID,24.9885,VALID,302,VALID,0.05625,
2012-06-27, 07:34:04,VALID,1005.94,VALID,0,VALID,92.729,VALID,156.986,VALID,25.0858,VALID,302,VALID,0.0933594,
2012-06-27, 07:35:04,VALID,1005.91,VALID,0,VALID,92.5307,VALID,156.986,VALID,25.1229,VALID,302,VALID,0.289453,
2012-06-27, 07:36:04,VALID,1005.91,VALID,0,VALID,91.8365,VALID,159.105,VALID,25.1229,VALID,335,VALID,0.328516,
2012-06-27, 07:37:04,VALID,1005.88,VALID,0,VALID,91.8441,VALID,161.225,VALID,25.1637,VALID,335,VALID,0.448047,
2012-06-27, 07:38:04,VALID,1005.89,VALID,0,VALID,91.1422,VALID,163.099,VALID,25.1442,VALID,329,VALID,0.228906,
2012-06-27, 07:39:04,VALID,1005.88,VALID,0,VALID,90.3565,VALID,165.056,VALID,25.1442,VALID,277,VALID,0.395703,
2012-06-27, 07:40:04,VALID,1005.9,VALID,0,VALID,90.3107,VALID,167.093,VALID,25.1248,VALID,290,VALID,0.335547,
2012-06-27, 07:41:04,VALID,1005.95,VALID,0,VALID,90.5701,VALID,169.213,VALID,25.2027,VALID,290,VALID,0.1875,
2012-06-27, 07:42:04,VALID,1005.99,VALID,0,VALID,90.776,VALID,171.902,VALID,25.2416,VALID,290,VALID,0.153125,
2012-06-27, 07:43:04,VALID,1006.06,VALID,0,VALID,90.9439,VALID,174.429,VALID,25.3,VALID,296,VALID,0.435547,
2012-06-27, 07:44:04,VALID,1006.05,VALID,0,VALID,90.5624,VALID,177.771,VALID,25.3,VALID,349,VALID,0.483984,
2012-06-27, 07:45:04,VALID,1006.09,VALID,0,VALID,90.0971,VALID,182.417,VALID,25.3195,VALID,16,VALID,0.700391,
2012-06-27, 07:46:04,VALID,1006.13,VALID,0,VALID,90.3488,VALID,189.671,VALID,25.3195,VALID,2,VALID,0.650391,
2012-06-27, 07:47:04,VALID,1006.18,VALID,0,VALID,89.8835,VALID,208.255,VALID,25.3,VALID,359,VALID,0.602734,
2012-06-27, 07:48:04,VALID,1006.23,VALID,0,VALID,90.0666,VALID,255.367,VALID,25.3195,VALID,359,VALID,0.521875,
2012-06-27, 07:49:04,VALID,1006.26,VALID,0,VALID,89.3037,VALID,418.385,VALID,25.3195,VALID,10,VALID,0.604297,
2012-06-27, 07:50:04,VALID,1006.29,VALID,0,VALID,89.0977,VALID,433.546,VALID,25.4188,VALID,350,VALID,0.734766,
2012-06-27, 07:51:04,VALID,1006.28,VALID,0,VALID,89.2426,VALID,436.48,VALID,25.4948,VALID,350,VALID,0.399609,
2012-06-27, 07:52:04,VALID,1006.29,VALID,0,VALID,89.2884,VALID,425.721,VALID,25.7304,VALID,351,VALID,0.113672,
2012-06-27, 07:53:04,VALID,1006.29,VALID,0,VALID,89.3494,VALID,437.866,VALID,25.9427,VALID,351,VALID,0.259375,
2012-06-27, 07:54:04,VALID,1006.27,VALID,0,VALID,85.8936,VALID,410.071,VALID,26.0012,VALID,60,VALID,0.583594,
2012-06-27, 07:55:04,VALID,1006.24,VALID,0,VALID,86.1072,VALID,370.784,VALID,26.0791,VALID,67,VALID,0.488672,
2012-06-27, 07:56:04,VALID,1006.26,VALID,0,VALID,83.6888,VALID,355.705,VALID,26.0791,VALID,73,VALID,0.472266,
2012-06-27, 07:57:04,VALID,1006.26,VALID,0,VALID,84.6501,VALID,328.888,VALID,26.157,VALID,73,VALID,0.153125,
2012-06-27, 07:58:04,VALID,1006.28,VALID,0,VALID,85.1154,VALID,219.911,VALID,26.3108,VALID,73,VALID,0.305859,
2012-06-27, 07:59:04,VALID,1006.37,VALID,0,VALID,84.1771,VALID,240.125,VALID,26.3498,VALID,77,VALID,0.440234,
2012-06-27, 08:00:04,VALID,1006.35,VALID,0,VALID,83.8872,VALID,242.489,VALID,26.3128,VALID,112,VALID,0.753125,
2012-06-27, 08:01:04,VALID,1006.4,VALID,0,VALID,84.4593,VALID,230.263,VALID,26.2739,VALID,129,VALID,0.6875,
2012-06-27, 08:02:04,VALID,1006.39,VALID,0,VALID,83.4371,VALID,224.72,VALID,26.2349,VALID,123,VALID,0.816797,
2012-06-27, 08:03:04,VALID,1006.4,VALID,0,VALID,84.8026,VALID,213.553,VALID,26.1959,VALID,132,VALID,0.573047,
2012-06-27, 08:04:04,VALID,1006.41,VALID,0,VALID,84.4899,VALID,208.989,VALID,26.1765,VALID,132,VALID,0.451562,
2012-06-27, 08:05:04,VALID,1006.42,VALID,0,VALID,84.116,VALID,202.713,VALID,26.1959,VALID,138,VALID,0.964844,
2012-06-27, 08:06:04,VALID,1006.45,VALID,0,VALID,84.3602,VALID,191.057,VALID,26.118,VALID,126,VALID,1.04922,
2012-06-27, 08:07:04,VALID,1006.47,VALID,0,VALID,86.3818,VALID,180.461,VALID,26.1375,VALID,147,VALID,0.710156,
2012-06-27, 08:08:04,VALID,1006.51,VALID,0,VALID,86.5344,VALID,172.473,VALID,26.157,VALID,124,VALID,0.7625,
2012-06-27, 08:09:04,VALID,1006.52,VALID,0,VALID,85.0849,VALID,166.767,VALID,26.1375,VALID,101,VALID,0.385938,
2012-06-27, 08:10:04,VALID,1006.51,VALID,0,VALID,85.3214,VALID,162.366,VALID,26.118,VALID,85,VALID,0.467969,
2012-06-27, 08:11:04,VALID,1006.52,VALID,0,VALID,85.535,VALID,161.795,VALID,26.157,VALID,127,VALID,1.03203,
2012-06-27, 08:12:04,VALID,1006.51,VALID,0,VALID,85.474,VALID,165.3,VALID,26.0985,VALID,124,VALID,0.603125,
2012-06-27, 08:13:04,VALID,1006.51,VALID,0,VALID,85.7257,VALID,175.163,VALID,26.1005,VALID,107,VALID,0.853906,
2012-06-27, 08:14:04,VALID,1006.53,VALID,0,VALID,85.1383,VALID,197.741,VALID,26.081,VALID,128,VALID,0.711328,
2012-06-27, 08:15:04,VALID,1006.52,VALID,0,VALID,86.5954,VALID,202.224,VALID,26.0985,VALID,138,VALID,0.866406,
2012-06-27, 08:16:04,VALID,1006.55,VALID,0,VALID,85.1459,VALID,186.492,VALID,26.081,VALID,139,VALID,1.04883,
2012-06-27, 08:17:04,VALID,1006.53,VALID,0,VALID,85.8325,VALID,175.652,VALID,26.0791,VALID,130,VALID,0.476563,
2012-06-27, 08:18:04,VALID,1006.53,VALID,0,VALID,87.16,VALID,164.077,VALID,26.159,VALID,131,VALID,0.646484,
2012-06-27, 08:19:04,VALID,1006.59,VALID,0,VALID,85.1536,VALID,160.736,VALID,26.1375,VALID,138,VALID,1.35391,
2012-06-27, 08:20:04,VALID,1006.59,VALID,0,VALID,85.6113,VALID,151.851,VALID,26.0985,VALID,159,VALID,0.975,
2012-06-27, 08:21:04,VALID,1006.61,VALID,0,VALID,84.8637,VALID,143.048,VALID,26.0616,VALID,132,VALID,1.0082,
2012-06-27, 08:22:04,VALID,1006.64,VALID,0,VALID,85.5884,VALID,139.706,VALID,26.0206,VALID,150,VALID,0.967578,
2012-06-27, 08:23:04,VALID,1006.66,VALID,0,VALID,85.474,VALID,139.299,VALID,26.0012,VALID,150,VALID,0.685938,
2012-06-27, 08:24:04,VALID,1006.65,VALID,0,VALID,86.5573,VALID,141.499,VALID,26.0206,VALID,150,VALID,0.447266,
2012-06-27, 08:25:04,VALID,1006.67,VALID,0,VALID,86.5649,VALID,145.167,VALID,26.0187,VALID,135,VALID,0.489062,
2012-06-27, 08:26:04,VALID,1006.68,VALID,0,VALID,87.7855,VALID,144.76,VALID,26.0771,VALID,128,VALID,0.558984,
2012-06-27, 08:27:04,VALID,1006.68,VALID,0,VALID,85.2985,VALID,140.358,VALID,26.0596,VALID,131,VALID,0.476172,
2012-06-27, 08:28:04,VALID,1006.66,VALID,0,VALID,85.3672,VALID,139.869,VALID,26.0206,VALID,138,VALID,0.501562,
2012-06-27, 08:29:04,VALID,1006.69,VALID,0,VALID,85.947,VALID,139.788,VALID,26.0596,VALID,138,VALID,0.432031,
2012-06-27, 08:30:04,VALID,1006.71,VALID,0,VALID,86.3666,VALID,139.788,VALID,26.0985,VALID,138,VALID,0.567187,
2012-06-27, 08:31:04,VALID,1006.73,VALID,0,VALID,86.0461,VALID,140.032,VALID,26.0985,VALID,137,VALID,0.542578,
2012-06-27, 08:32:04,VALID,1006.74,VALID,0,VALID,86.5573,VALID,141.336,VALID,26.0985,VALID,135,VALID,1.11875,
2012-06-27, 08:33:04,VALID,1006.76,VALID,0,VALID,85.8173,VALID,144.434,VALID,26.0596,VALID,147,VALID,0.607031,
2012-06-27, 08:34:04,VALID,1006.75,VALID,0,VALID,85.3901,VALID,146.309,VALID,26.0401,VALID,168,VALID,1.54023,
2012-06-27, 08:35:04,VALID,1006.77,VALID,0,VALID,85.7105,VALID,149.487,VALID,26.0226,VALID,156,VALID,1.23672,
2012-06-27, 08:36:04,VALID,1006.76,VALID,0,VALID,85.0315,VALID,153.318,VALID,25.9622,VALID,158,VALID,1.16562,
2012-06-27, 08:37:04,VALID,1006.77,VALID,0,VALID,85.5503,VALID,156.334,VALID,25.9408,VALID,155,VALID,1.1625,
2012-06-27, 08:38:04,VALID,1006.79,VALID,0,VALID,86.9235,VALID,160.002,VALID,25.9602,VALID,146,VALID,0.900781,
2012-06-27, 08:39:04,VALID,1006.8,VALID,0,VALID,85.9317,VALID,163.833,VALID,26.0031,VALID,124,VALID,1.12266,
2012-06-27, 08:40:04,VALID,1006.81,VALID,0,VALID,85.7334,VALID,168.234,VALID,25.9836,VALID,141,VALID,0.832422,
2012-06-27, 08:41:04,VALID,1006.78,VALID,0,VALID,86.481,VALID,173.451,VALID,26.0012,VALID,118,VALID,0.591016,
2012-06-27, 08:42:04,VALID,1006.81,VALID,0,VALID,85.6266,VALID,179.809,VALID,26.0012,VALID,151,VALID,1.64766,
2012-06-27, 08:43:04,VALID,1006.83,VALID,0,VALID,84.3068,VALID,186.085,VALID,26.0031,VALID,147,VALID,1.43242,
2012-06-27, 08:44:04,VALID,1006.79,VALID,0,VALID,84.6272,VALID,191.057,VALID,26.0421,VALID,165,VALID,1.37656,
2012-06-27, 08:45:04,VALID,1006.8,VALID,0,VALID,85.9775,VALID,198.23,VALID,26.081,VALID,125,VALID,0.770312,
2012-06-27, 08:46:04,VALID,1006.83,VALID,0,VALID,85.8631,VALID,206.218,VALID,26.1375,VALID,124,VALID,0.867969,
2012-06-27, 08:47:04,VALID,1006.8,VALID,0,VALID,84.2,VALID,212.575,VALID,26.1005,VALID,118,VALID,1.23242,
2012-06-27, 08:48:04,VALID,1006.76,VALID,0,VALID,84.6882,VALID,218.607,VALID,26.0791,VALID,99,VALID,1.1543,
2012-06-27, 08:49:04,VALID,1006.75,VALID,0,VALID,86.1301,VALID,223.66,VALID,26.159,VALID,116,VALID,0.759375,
2012-06-27, 08:50:04,VALID,1006.75,VALID,0,VALID,84.9705,VALID,228.388,VALID,26.1979,VALID,149,VALID,0.835938,
2012-06-27, 08:51:04,VALID,1006.76,VALID,0,VALID,84.8637,VALID,234.012,VALID,26.2544,VALID,121,VALID,0.735937,
2012-06-27, 08:52:04,VALID,1006.73,VALID,0,VALID,84.9705,VALID,237.762,VALID,26.2759,VALID,121,VALID,0.401953,
2012-06-27, 08:53:04,VALID,1006.74,VALID,0,VALID,85.1765,VALID,239.229,VALID,26.3323,VALID,125,VALID,0.882813,
2012-06-27, 08:54:04,VALID,1006.73,VALID,0,VALID,82.7657,VALID,239.147,VALID,26.3733,VALID,118,VALID,0.847266,
2012-06-27, 08:55:04,VALID,1006.73,VALID,0,VALID,84.7645,VALID,238.414,VALID,26.3907,VALID,120,VALID,1.16641,
2012-06-27, 08:56:04,VALID,1006.73,VALID,0,VALID,81.8503,VALID,236.457,VALID,26.3927,VALID,137,VALID,1.61484,
2012-06-27, 08:57:04,VALID,1006.76,VALID,0,VALID,82.0868,VALID,232.137,VALID,26.3927,VALID,111,VALID,1.06602,
2012-06-27, 08:58:04,VALID,1006.73,VALID,0,VALID,83.2921,VALID,226.269,VALID,26.4122,VALID,113,VALID,0.753125,
2012-06-27, 08:59:04,VALID,1006.75,VALID,0,VALID,82.6513,VALID,221.46,VALID,26.4297,VALID,144,VALID,0.914453,
2012-06-27, 09:00:04,VALID,1006.73,VALID,0,VALID,83.2692,VALID,219.422,VALID,26.4707,VALID,123,VALID,0.9625,
2012-06-27, 09:01:04,VALID,1006.75,VALID,0,VALID,84.1694,VALID,216.569,VALID,26.5096,VALID,141,VALID,0.814062,
2012-06-27, 09:02:04,VALID,1006.72,VALID,0,VALID,80.7975,VALID,211.679,VALID,26.5096,VALID,189,VALID,1.51797,
2012-06-27, 09:03:04,VALID,1006.71,VALID,0,VALID,82.4758,VALID,208.011,VALID,26.4881,VALID,140,VALID,1.28086,
2012-06-27, 09:04:04,VALID,1006.7,VALID,0,VALID,82.3385,VALID,206.87,VALID,26.5291,VALID,169,VALID,1.03359,
2012-06-27, 09:05:04,VALID,1006.67,VALID,0,VALID,80.8585,VALID,209.07,VALID,26.5291,VALID,200,VALID,1.62891,
2012-06-27, 09:06:04,VALID,1006.68,VALID,0,VALID,81.1408,VALID,210.701,VALID,26.5291,VALID,226,VALID,0.861328,
2012-06-27, 09:07:04,VALID,1006.66,VALID,0,VALID,81.69,VALID,212.738,VALID,26.5291,VALID,166,VALID,1.12734,
2012-06-27, 09:08:04,VALID,1006.68,VALID,0,VALID,81.301,VALID,213.879,VALID,26.4901,VALID,164,VALID,1.46797,
2012-06-27, 09:09:04,VALID,1006.63,VALID,0,VALID,80.9806,VALID,213.227,VALID,26.5096,VALID,184,VALID,1.64883,
2012-06-27, 09:10:04,VALID,1006.66,VALID,0,VALID,82.0333,VALID,212.738,VALID,26.4317,VALID,167,VALID,1.2,
2012-06-27, 09:11:04,VALID,1006.62,VALID,0,VALID,81.9342,VALID,213.39,VALID,26.4297,VALID,156,VALID,1.14141,
2012-06-27, 09:12:04,VALID,1006.63,VALID,0,VALID,81.6748,VALID,213.064,VALID,26.4297,VALID,154,VALID,1.46563,
2012-06-27, 09:13:04,VALID,1006.6,VALID,0,VALID,81.301,VALID,211.923,VALID,26.4297,VALID,134,VALID,1.03984,
2012-06-27, 09:14:04,VALID,1006.64,VALID,0,VALID,80.6525,VALID,210.048,VALID,26.4317,VALID,158,VALID,1.96211,
2012-06-27, 09:15:04,VALID,1006.63,VALID,0,VALID,79.9888,VALID,208.581,VALID,26.4317,VALID,163,VALID,1.825,
2012-06-27, 09:16:04,VALID,1006.63,VALID,0,VALID,81.6824,VALID,206.381,VALID,26.4102,VALID,188,VALID,1.10977,
2012-06-27, 09:17:04,VALID,1006.65,VALID,0,VALID,82.6971,VALID,204.017,VALID,26.4687,VALID,120,VALID,0.873438,
2012-06-27, 09:18:04,VALID,1006.62,VALID,0,VALID,80.7364,VALID,201.246,VALID,26.4492,VALID,150,VALID,1.225,
2012-06-27, 09:19:04,VALID,1006.62,VALID,0,VALID,81.0111,VALID,197.985,VALID,26.4687,VALID,179,VALID,1.29844,
2012-06-27, 09:20:04,VALID,1006.63,VALID,0,VALID,81.7358,VALID,194.562,VALID,26.5096,VALID,155,VALID,0.992188,
2012-06-27, 09:21:04,VALID,1006.61,VALID,0,VALID,82.0105,VALID,190.894,VALID,26.4492,VALID,157,VALID,1.78945,
2012-06-27, 09:22:04,VALID,1006.6,VALID,0,VALID,80.3855,VALID,187.063,VALID,26.4492,VALID,196,VALID,1.91172,
2012-06-27, 09:23:04,VALID,1006.6,VALID,0,VALID,81.9189,VALID,183.721,VALID,26.4317,VALID,179,VALID,1.52383,
2012-06-27, 09:24:04,VALID,1006.59,VALID,0,VALID,79.7905,VALID,180.542,VALID,26.4277,VALID,182,VALID,1.71133,
2012-06-27, 09:25:04,VALID,1006.59,VALID,0,VALID,81.1179,VALID,176.956,VALID,26.4687,VALID,181,VALID,1.15703,
2012-06-27, 09:26:04,VALID,1006.59,VALID,0,VALID,79.9202,VALID,172.799,VALID,26.4297,VALID,163,VALID,1.46094,
2012-06-27, 09:27:04,VALID,1006.59,VALID,0,VALID,81.0645,VALID,168.071,VALID,26.3887,VALID,196,VALID,1.1418,
2012-06-27, 09:28:04,VALID,1006.59,VALID,0,VALID,82.0257,VALID,163.099,VALID,26.3887,VALID,180,VALID,0.752734,
2012-06-27, 09:29:04,VALID,1006.56,VALID,0,VALID,81.2171,VALID,158.616,VALID,26.4102,VALID,196,VALID,1.90859,
2012-06-27, 09:30:04,VALID,1006.6,VALID,0,VALID,82.2851,VALID,156.416,VALID,26.4102,VALID,159,VALID,0.889844,
2012-06-27, 09:31:04,VALID,1006.62,VALID,0,VALID,81.1865,VALID,156.742,VALID,26.4297,VALID,151,VALID,2.20703,
2012-06-27, 09:32:04,VALID,1006.62,VALID,0,VALID,82.4148,VALID,155.927,VALID,26.4102,VALID,180,VALID,0.751953,
2012-06-27, 09:33:04,VALID,1006.64,VALID,0,VALID,81.8655,VALID,154.133,VALID,26.4277,VALID,175,VALID,1.01602,
2012-06-27, 09:34:04,VALID,1006.59,VALID,0,VALID,81.8884,VALID,152.829,VALID,26.4082,VALID,168,VALID,1.19766,
2012-06-27, 09:35:04,VALID,1006.65,VALID,0,VALID,82.041,VALID,151.607,VALID,26.4102,VALID,190,VALID,1.1957,
2012-06-27, 09:36:04,VALID,1006.61,VALID,0,VALID,81.8197,VALID,151.199,VALID,26.4082,VALID,183,VALID,0.940234,
2012-06-27, 09:37:04,VALID,1006.65,VALID,0,VALID,83.4371,VALID,151.362,VALID,26.4102,VALID,158,VALID,0.911328,
2012-06-27, 09:38:04,VALID,1006.62,VALID,0,VALID,81.7892,VALID,151.444,VALID,26.4102,VALID,183,VALID,1.05156,
2012-06-27, 09:39:04,VALID,1006.63,VALID,0,VALID,81.774,VALID,152.829,VALID,26.3733,VALID,151,VALID,1.7668,
2012-06-27, 09:40:04,VALID,1006.63,VALID,0,VALID,81.9418,VALID,154.378,VALID,26.3518,VALID,168,VALID,1.81836,
2012-06-27, 09:41:05,VALID,1006.66,VALID,0,VALID,81.7816,VALID,155.682,VALID,26.3323,VALID,157,VALID,1.75937,
2012-06-27, 09:42:05,VALID,1006.65,VALID,0,VALID,81.8579,VALID,157.149,VALID,26.3128,VALID,164,VALID,1.15195,
2012-06-27, 09:43:05,VALID,1006.64,VALID,0,VALID,82.5063,VALID,158.616,VALID,26.3518,VALID,182,VALID,0.835547,
2012-06-27, 09:44:05,VALID,1006.67,VALID,0,VALID,82.3309,VALID,159.92,VALID,26.3518,VALID,170,VALID,1.2918,
2012-06-27, 09:45:05,VALID,1006.64,VALID,0,VALID,81.4841,VALID,161.062,VALID,26.3518,VALID,152,VALID,0.986719,
2012-06-27, 09:46:05,VALID,1006.66,VALID,0,VALID,82.247,VALID,161.795,VALID,26.3323,VALID,159,VALID,0.819531,
2012-06-27, 09:47:05,VALID,1006.63,VALID,0,VALID,82.0715,VALID,162.121,VALID,26.3538,VALID,159,VALID,1.0293,
2012-06-27, 09:48:05,VALID,1006.62,VALID,0,VALID,80.6296,VALID,162.04,VALID,26.3128,VALID,206,VALID,1.11484,
2012-06-27, 09:49:05,VALID,1006.62,VALID,0,VALID,81.4002,VALID,161.388,VALID,26.3733,VALID,195,VALID,1.15313,
2012-06-27, 09:50:05,VALID,1006.65,VALID,0,VALID,82.2622,VALID,160.247,VALID,26.3733,VALID,164,VALID,0.777734,
2012-06-27, 09:51:05,VALID,1006.65,VALID,0,VALID,81.5451,VALID,158.616,VALID,26.3713,VALID,163,VALID,0.99375,
2012-06-27, 09:52:05,VALID,1006.63,VALID,0,VALID,82.3232,VALID,156.416,VALID,26.3927,VALID,186,VALID,0.551172,
2012-06-27, 09:53:05,VALID,1006.63,VALID,0,VALID,82.1249,VALID,153.563,VALID,26.3907,VALID,186,VALID,0.264062,
2012-06-27, 09:54:05,VALID,1006.65,VALID,0,VALID,81.3315,VALID,150.955,VALID,26.4317,VALID,208,VALID,0.788672,
2012-06-27, 09:55:05,VALID,1006.65,VALID,0,VALID,80.561,VALID,148.835,VALID,26.4317,VALID,194,VALID,1.09063,
2012-06-27, 09:56:05,VALID,1006.66,VALID,0,VALID,80.9882,VALID,146.798,VALID,26.4102,VALID,172,VALID,0.881641,
2012-06-27, 09:57:05,VALID,1006.67,VALID,0,VALID,79.8973,VALID,145.004,VALID,26.4122,VALID,185,VALID,1.22852,
2012-06-27, 09:58:05,VALID,1006.67,VALID,0,VALID,81.0645,VALID,143.537,VALID,26.4102,VALID,208,VALID,0.655078,
2012-06-27, 09:59:05,VALID,1006.68,VALID,0,VALID,81.4078,VALID,142.396,VALID,26.4102,VALID,212,VALID,0.263672,
2012-06-27, 10:00:05,VALID,1006.68,VALID,0,VALID,82.102,VALID,141.418,VALID,26.4687,VALID,185,VALID,0.490625,
2012-06-27, 10:01:05,VALID,1006.68,VALID,0,VALID,82.9717,VALID,140.44,VALID,26.4687,VALID,152,VALID,0.696484,
2012-06-27, 10:02:05,VALID,1006.69,VALID,0,VALID,82.6513,VALID,139.299,VALID,26.4901,VALID,143,VALID,0.95625,
2012-06-27, 10:03:05,VALID,1006.72,VALID,0,VALID,82.6284,VALID,138.076,VALID,26.4687,VALID,172,VALID,0.673437,
2012-06-27, 10:04:05,VALID,1006.69,VALID,0,VALID,81.5298,VALID,136.69,VALID,26.4687,VALID,130,VALID,0.673047,
2012-06-27, 10:05:05,VALID,1006.71,VALID,0,VALID,81.6138,VALID,135.305,VALID,26.4881,VALID,148,VALID,0.5,
2012-06-27, 10:06:05,VALID,1006.72,VALID,0,VALID,81.5146,VALID,133.919,VALID,26.5076,VALID,153,VALID,0.464453,
2012-06-27, 10:07:05,VALID,1006.72,VALID,0,VALID,80.6983,VALID,132.697,VALID,26.4881,VALID,121,VALID,0.554297,
2012-06-27, 10:08:05,VALID,1006.69,VALID,0,VALID,80.7746,VALID,131.555,VALID,26.5271,VALID,196,VALID,0.276172,
2012-06-27, 10:09:05,VALID,1006.67,VALID,0,VALID,79.9736,VALID,130.496,VALID,26.5486,VALID,174,VALID,0.901953,
2012-06-27, 10:10:05,VALID,1006.69,VALID,0,VALID,80.5915,VALID,129.355,VALID,26.5076,VALID,188,VALID,0.576953,
2012-06-27, 10:11:05,VALID,1006.63,VALID,0,VALID,81.3696,VALID,128.377,VALID,26.5486,VALID,206,VALID,0.622266,
2012-06-27, 10:12:05,VALID,1006.67,VALID,0,VALID,81.2094,VALID,127.235,VALID,26.5271,VALID,212,VALID,0.883594,
2012-06-27, 10:13:05,VALID,1006.64,VALID,0,VALID,81.4078,VALID,125.85,VALID,26.5271,VALID,173,VALID,0.971875,
2012-06-27, 10:14:05,VALID,1006.64,VALID,0,VALID,82.0181,VALID,124.057,VALID,26.5076,VALID,173,VALID,0.466406,
2012-06-27, 10:15:05,VALID,1006.63,VALID,0,VALID,82.5521,VALID,122.182,VALID,26.5681,VALID,163,VALID,0.480469,
2012-06-27, 10:16:05,VALID,1006.65,VALID,0,VALID,81.1637,VALID,119.818,VALID,26.5271,VALID,214,VALID,0.602344,
2012-06-27, 10:23:04,VALID,1006.59,VALID,0,VALID,82.9946,VALID,126.257,VALID,26.5466,VALID,180,VALID,0.23125,
2012-06-27, 10:24:04,VALID,1006.59,VALID,0,VALID,83.5134,VALID,134.408,VALID,26.5486,VALID,180,VALID,0.228516,
2012-06-27, 10:25:04,VALID,1006.54,VALID,0,VALID,83.1853,VALID,140.847,VALID,26.5271,VALID,180,VALID,0.493359,
2012-06-27, 10:26:04,VALID,1006.54,VALID,0,VALID,83.9177,VALID,145.819,VALID,26.5291,VALID,176,VALID,0.421094,
2012-06-27, 10:27:04,VALID,1006.53,VALID,0,VALID,84.2305,VALID,149.487,VALID,26.5271,VALID,176,VALID,0.590625,
2012-06-27, 10:28:04,VALID,1006.53,VALID,0,VALID,84.1923,VALID,152.666,VALID,26.5486,VALID,177,VALID,0.480859,
2012-06-27, 10:29:04,VALID,1006.52,VALID,0,VALID,84.9323,VALID,156.008,VALID,26.5466,VALID,177,VALID,0.207031,
2012-06-27, 10:30:04,VALID,1006.48,VALID,0,VALID,83.7498,VALID,158.453,VALID,26.5466,VALID,181,VALID,0.507422,
2012-06-27, 10:31:04,VALID,1006.5,VALID,0,VALID,83.8261,VALID,159.594,VALID,26.5466,VALID,176,VALID,0.332031,
2012-06-27, 10:32:04,VALID,1006.47,VALID,0,VALID,84.2305,VALID,159.676,VALID,26.5271,VALID,176,VALID,0.549219,
2012-06-27, 10:33:04,VALID,1006.44,VALID,0,VALID,84.2381,VALID,160.654,VALID,26.5271,VALID,208,VALID,0.724219,
2012-06-27, 10:34:04,VALID,1006.47,VALID,0,VALID,83.5591,VALID,164.24,VALID,26.5076,VALID,196,VALID,0.664453,
2012-06-27, 10:35:04,VALID,1006.42,VALID,0,VALID,83.3379,VALID,169.049,VALID,26.4687,VALID,208,VALID,0.753125,
2012-06-27, 10:36:04,VALID,1006.43,VALID,0,VALID,85.0468,VALID,174.022,VALID,26.4881,VALID,210,VALID,0.4875,
2012-06-27, 10:37:04,VALID,1006.43,VALID,0,VALID,83.2769,VALID,177.526,VALID,26.4492,VALID,193,VALID,0.921875,
2012-06-27, 10:38:04,VALID,1006.43,VALID,0,VALID,83.8185,VALID,179.809,VALID,26.4707,VALID,224,VALID,0.891016,
2012-06-27, 10:39:04,VALID,1006.41,VALID,0,VALID,84.528,VALID,181.439,VALID,26.4297,VALID,206,VALID,0.6625,
2012-06-27, 10:40:04,VALID,1006.39,VALID,0,VALID,83.8567,VALID,183.314,VALID,26.4512,VALID,209,VALID,0.678906,
2012-06-27, 10:41:04,VALID,1006.42,VALID,0,VALID,85.3977,VALID,185.922,VALID,26.4492,VALID,181,VALID,0.687891,
2012-06-27, 10:42:04,VALID,1006.41,VALID,0,VALID,84.7263,VALID,189.427,VALID,26.4707,VALID,187,VALID,0.4625,
2012-06-27, 10:43:04,VALID,1006.4,VALID,0,VALID,84.0245,VALID,192.85,VALID,26.4297,VALID,172,VALID,1.10977,
2012-06-27, 10:44:04,VALID,1006.39,VALID,0,VALID,84.8332,VALID,195.132,VALID,26.4512,VALID,196,VALID,0.767969,
2012-06-27, 10:45:04,VALID,1006.41,VALID,0,VALID,84.7797,VALID,196.355,VALID,26.4297,VALID,180,VALID,0.640625,
2012-06-27, 10:46:04,VALID,1006.41,VALID,0,VALID,87.2744,VALID,197.985,VALID,26.5076,VALID,206,VALID,0.224219,
2012-06-27, 10:47:04,VALID,1006.41,VALID,0,VALID,84.2152,VALID,201.816,VALID,26.4687,VALID,168,VALID,1.05625,
2012-06-27, 10:48:04,VALID,1006.43,VALID,0,VALID,85.802,VALID,207.603,VALID,26.5271,VALID,175,VALID,0.466406,